Time,TemperatureF,DewpointF,PressureIn,WindDirection,WindDirectionDegrees,WindSpeedMPH,WindSpeedGustMPH,Humidity,HourlyPrecipIn,Conditions,Clouds,dailyrainin,SoftwareType,DateUTC
2013-02-20 00:00:00,26.4,15.9,30.21,North,355,4.0,5.0,64,0.00,,,0.13,Wunderground v.1.15,2013-02-20 05:00:00,
2013-02-20 00:10:00,26.3,15.8,30.21,NNE,20,3.0,3.0,64,0.00,,,0.00,Wunderground v.1.15,2013-02-20 05:10:00,
2013-02-20 00:20:00,26.1,14.8,30.22,NNW,336,4.0,4.0,62,0.00,,,0.00,Wunderground v.1.15,2013-02-20 05:20:00,
2013-02-20 00:30:00,26.0,15.1,30.22,NW,309,4.0,4.0,63,0.00,,,0.00,Wunderground v.1.15,2013-02-20 05:30:00,
2013-02-20 00:40:00,25.8,14.9,30.22,WNW,299,2.0,3.0,63,0.00,,,0.00,Wunderground v.1.15,2013-02-20 05:40:00,
2013-02-20 00:50:00,25.5,14.3,30.22,North,349,3.0,3.0,62,0.00,,,0.00,Wunderground v.1.15,2013-02-20 05:50:00,
2013-02-20 01:00:00,25.2,14.0,30.22,WNW,286,3.0,3.0,62,0.00,,,0.00,Wunderground v.1.15,2013-02-20 06:00:00,
2013-02-20 01:10:00,25.0,14.9,30.23,NNE,24,2.0,2.0,65,0.00,,,0.00,Wunderground v.1.15,2013-02-20 06:10:00,
2013-02-20 01:20:00,24.9,14.8,30.22,WNW,290,1.0,1.0,65,0.00,,,0.00,Wunderground v.1.15,2013-02-20 06:20:00,
2013-02-20 01:30:00,24.7,14.9,30.23,NNW,327,2.0,2.0,66,0.00,,,0.00,Wunderground v.1.15,2013-02-20 06:30:00,
2013-02-20 01:40:00,24.5,14.8,30.23,NW,315,1.0,1.0,66,0.00,,,0.00,Wunderground v.1.15,2013-02-20 06:40:00,
2013-02-20 01:50:00,24.5,14.8,30.23,NNW,331,1.0,7.0,66,0.00,,,0.00,Wunderground v.1.15,2013-02-20 06:50:00,
2013-02-20 02:00:00,24.3,14.9,30.22,North,5,3.0,3.0,67,0.00,,,0.00,Wunderground v.1.15,2013-02-20 07:00:00,
2013-02-20 02:10:00,24.2,15.2,30.22,North,360,1.0,1.0,68,0.00,,,0.00,Wunderground v.1.15,2013-02-20 07:10:00,
2013-02-20 02:20:00,24.3,15.3,30.22,NW,311,1.0,1.0,68,0.00,,,0.00,Wunderground v.1.15,2013-02-20 07:20:00,
2013-02-20 02:30:00,24.3,15.3,30.23,NNW,329,2.0,6.0,68,0.00,,,0.00,Wunderground v.1.15,2013-02-20 07:30:00,
2013-02-20 02:40:00,24.3,15.3,30.24,West,281,2.0,2.0,68,0.00,,,0.00,Wunderground v.1.15,2013-02-20 07:40:00,
2013-02-20 02:50:00,24.5,15.4,30.24,WSW,254,1.0,1.0,68,0.00,,,0.00,Wunderground v.1.15,2013-02-20 07:50:00,
2013-02-20 03:00:00,24.4,15.0,30.24,WNW,300,2.0,2.0,67,0.00,,,0.00,Wunderground v.1.15,2013-02-20 08:00:00,
2013-02-20 03:10:00,24.1,14.4,30.24,NNE,22,3.0,4.0,66,0.00,,,0.00,Wunderground v.1.15,2013-02-20 08:10:00,
2013-02-20 03:20:00,23.9,14.2,30.25,West,277,4.0,4.0,66,0.00,,,0.00,Wunderground v.1.15,2013-02-20 08:20:00,
2013-02-20 03:30:00,23.7,14.0,30.25,NNW,339,4.0,4.0,66,0.00,,,0.00,Wunderground v.1.15,2013-02-20 08:30:00,
2013-02-20 03:40:00,23.6,14.2,30.25,NNW,334,3.0,3.0,67,0.00,,,0.00,Wunderground v.1.15,2013-02-20 08:40:00,
2013-02-20 03:50:00,23.6,14.6,30.25,North,5,2.0,3.0,68,0.00,,,0.00,Wunderground v.1.15,2013-02-20 08:50:00,
2013-02-20 04:00:00,23.4,14.4,30.25,NNW,329,3.0,3.0,68,0.00,,,0.00,Wunderground v.1.15,2013-02-20 09:00:00,
2013-02-20 04:10:00,23.2,14.2,30.26,WNW,301,2.0,3.0,68,0.00,,,0.00,Wunderground v.1.15,2013-02-20 09:10:00,
2013-02-20 04:20:00,22.7,13.4,30.25,North,360,4.0,4.0,67,0.00,,,0.00,Wunderground v.1.15,2013-02-20 09:20:00,
2013-02-20 04:30:00,22.4,13.8,30.25,NNW,338,3.0,3.0,69,0.00,,,0.00,Wunderground v.1.15,2013-02-20 09:30:00,
2013-02-20 04:40:00,22.1,13.5,30.25,NNW,327,3.0,3.0,69,0.00,,,0.00,Wunderground v.1.15,2013-02-20 09:40:00,
2013-02-20 04:50:00,21.9,13.9,30.25,NNW,347,2.0,3.0,71,0.00,,,0.00,Wunderground v.1.15,2013-02-20 09:50:00,
2013-02-20 05:00:00,21.6,13.3,30.25,NNW,336,3.0,3.0,70,0.00,,,0.00,Wunderground v.1.15,2013-02-20 10:00:00,
2013-02-20 05:10:00,21.5,13.5,30.26,NW,323,2.0,2.0,71,0.00,,,0.00,Wunderground v.1.15,2013-02-20 10:10:00,
2013-02-20 05:20:00,21.4,13.5,30.26,NW,322,2.0,2.0,71,0.00,,,0.00,Wunderground v.1.15,2013-02-20 10:20:00,
2013-02-20 05:30:00,21.3,13.4,30.27,North,349,2.0,2.0,71,0.00,,,0.00,Wunderground v.1.15,2013-02-20 10:30:00,
2013-02-20 05:40:00,21.1,13.5,30.28,WNW,283,2.0,2.0,72,0.00,,,0.00,Wunderground v.1.15,2013-02-20 10:40:00,
2013-02-20 05:50:00,20.7,12.8,30.28,NNE,22,3.0,4.0,71,0.00,,,0.00,Wunderground v.1.15,2013-02-20 10:50:00,
2013-02-20 06:00:00,20.6,13.0,30.28,NNW,329,1.0,1.0,72,0.00,,,0.00,Wunderground v.1.15,2013-02-20 11:00:00,
2013-02-20 06:10:00,20.3,12.7,30.28,North,351,2.0,4.0,72,0.00,,,0.00,Wunderground v.1.15,2013-02-20 11:10:00,
2013-02-20 06:20:00,20.0,11.8,30.27,NNE,23,3.0,3.0,70,0.00,,,0.00,Wunderground v.1.15,2013-02-20 11:20:00,
2013-02-20 06:30:00,19.8,12.2,30.27,North,5,2.0,2.0,72,0.00,,,0.00,Wunderground v.1.15,2013-02-20 11:30:00,
2013-02-20 06:40:00,19.7,12.1,30.28,NW,321,1.0,1.0,72,0.00,,,0.00,Wunderground v.1.15,2013-02-20 11:40:00,
2013-02-20 06:50:00,19.6,12.7,30.28,NNW,331,2.0,2.0,74,0.00,,,0.00,Wunderground v.1.15,2013-02-20 11:50:00,
2013-02-20 07:00:00,19.5,12.3,30.28,NW,322,2.0,2.0,73,0.00,,,0.00,Wunderground v.1.15,2013-02-20 12:00:00,
2013-02-20 07:10:00,19.3,12.4,30.28,NNW,330,2.0,2.0,74,0.00,,,0.00,Wunderground v.1.15,2013-02-20 12:10:00,
2013-02-20 07:20:00,19.3,12.7,30.29,West,269,1.0,2.0,75,0.00,,,0.00,Wunderground v.1.15,2013-02-20 12:20:00,
2013-02-20 07:30:00,19.0,12.1,30.30,NNW,330,2.0,2.0,74,0.00,,,0.00,Wunderground v.1.15,2013-02-20 12:30:00,
2013-02-20 07:40:00,18.7,11.5,30.30,NNE,12,2.0,3.0,73,0.00,,,0.00,Wunderground v.1.15,2013-02-20 12:40:00,
2013-02-20 07:50:00,18.6,11.7,30.31,WNW,294,2.0,2.0,74,0.00,,,0.00,Wunderground v.1.15,2013-02-20 12:50:00,
2013-02-20 08:00:00,18.7,11.8,30.32,NNW,341,2.0,2.0,74,0.00,,,0.00,Wunderground v.1.15,2013-02-20 13:00:00,
2013-02-20 08:10:00,18.9,11.7,30.33,NNW,327,2.0,2.0,73,0.00,,,0.00,Wunderground v.1.15,2013-02-20 13:10:00,
2013-02-20 08:20:00,18.7,11.2,30.33,NNW,336,3.0,3.0,72,0.00,,,0.00,Wunderground v.1.15,2013-02-20 13:20:00,
2013-02-20 08:30:00,19.0,12.1,30.33,North,355,2.0,3.0,74,0.00,,,0.00,Wunderground v.1.15,2013-02-20 13:30:00,
2013-02-20 08:40:00,19.5,12.3,30.33,NNW,340,2.0,7.0,73,0.00,,,0.00,Wunderground v.1.15,2013-02-20 13:40:00,
2013-02-20 08:50:00,19.5,11.6,30.32,NNW,342,4.0,4.0,71,0.00,,,0.00,Wunderground v.1.15,2013-02-20 13:50:00,
2013-02-20 09:00:00,20.1,12.2,30.32,North,5,3.0,3.0,71,0.00,,,0.00,Wunderground v.1.15,2013-02-20 14:00:00,
2013-02-20 09:10:00,20.2,12.0,30.32,WNW,299,3.0,4.0,70,0.00,,,0.00,Wunderground v.1.15,2013-02-20 14:10:00,
2013-02-20 09:20:00,20.3,12.1,30.32,NW,315,4.0,4.0,70,0.00,,,0.00,Wunderground v.1.15,2013-02-20 14:20:00,
2013-02-20 09:30:00,20.6,12.4,30.33,NE,44,2.0,3.0,70,0.00,,,0.00,Wunderground v.1.15,2013-02-20 14:30:00,
2013-02-20 09:40:00,21.2,12.9,30.33,North,355,3.0,3.0,70,0.00,,,0.00,Wunderground v.1.15,2013-02-20 14:40:00,
2013-02-20 09:50:00,21.6,12.3,30.34,North,350,3.0,3.0,67,0.00,,,0.00,Wunderground v.1.15,2013-02-20 14:50:00,
2013-02-20 10:00:00,21.9,13.0,30.34,North,360,3.0,3.0,68,0.00,,,0.00,Wunderground v.1.15,2013-02-20 15:00:00,
2013-02-20 10:10:00,22.2,12.6,30.35,North,349,3.0,3.0,66,0.00,,,0.00,Wunderground v.1.15,2013-02-20 15:10:00,
2013-02-20 10:20:00,22.0,12.4,30.34,NNW,340,3.0,3.0,66,0.00,,,0.00,Wunderground v.1.15,2013-02-20 15:20:00,
2013-02-20 10:30:00,22.2,13.2,30.35,West,279,3.0,4.0,68,0.00,,,0.00,Wunderground v.1.15,2013-02-20 15:30:00,
2013-02-20 10:40:00,23.0,13.3,30.35,NNW,339,3.0,4.0,66,0.00,,,0.00,Wunderground v.1.15,2013-02-20 15:40:00,
2013-02-20 10:50:00,23.5,13.8,30.36,NW,325,3.0,3.0,66,0.00,,,0.00,Wunderground v.1.15,2013-02-20 15:50:00,
2013-02-20 11:00:00,23.6,12.8,30.37,NW,304,3.0,3.0,63,0.00,,,0.00,Wunderground v.1.15,2013-02-20 16:00:00,
2013-02-20 11:10:00,24.4,13.2,30.37,NE,36,3.0,3.0,62,0.00,,,0.00,Wunderground v.1.15,2013-02-20 16:10:00,
2013-02-20 11:20:00,25.0,13.4,30.37,SE,132,2.0,2.0,61,0.00,,,0.00,Wunderground v.1.15,2013-02-20 16:20:00,
2013-02-20 11:30:00,24.8,12.5,30.37,NNE,32,3.0,4.0,59,0.00,,,0.00,Wunderground v.1.15,2013-02-20 16:30:00,
2013-02-20 11:40:00,25.0,12.7,30.37,NE,38,3.0,5.0,59,0.00,,,0.00,Wunderground v.1.15,2013-02-20 16:40:00,
2013-02-20 11:50:00,25.0,12.7,30.36,North,360,3.0,6.0,59,0.00,,,0.00,Wunderground v.1.15,2013-02-20 16:50:00,
2013-02-20 12:00:00,25.1,12.4,30.36,NNE,28,3.0,3.0,58,0.00,,,0.00,Wunderground v.1.15,2013-02-20 17:00:00,
2013-02-20 12:10:00,25.8,12.2,30.37,NE,36,2.0,2.0,56,0.00,,,0.00,Wunderground v.1.15,2013-02-20 17:10:00,
2013-02-20 12:20:00,26.8,13.6,30.37,NE,48,2.0,2.0,57,0.00,,,0.00,Wunderground v.1.15,2013-02-20 17:20:00,
2013-02-20 12:30:00,27.0,13.4,30.37,WNW,288,3.0,3.0,56,0.00,,,0.00,Wunderground v.1.15,2013-02-20 17:30:00,
2013-02-20 12:40:00,27.4,13.3,30.36,WNW,295,2.0,2.0,55,0.00,,,0.00,Wunderground v.1.15,2013-02-20 17:40:00,
2013-02-20 12:50:00,27.6,12.2,30.35,North,10,3.0,3.0,52,0.00,,,0.00,Wunderground v.1.15,2013-02-20 17:50:00,
2013-02-20 13:00:00,28.2,13.7,30.35,North,351,3.0,3.0,54,0.00,,,0.00,Wunderground v.1.15,2013-02-20 18:00:00,
2013-02-20 13:10:00,27.4,12.5,30.34,NNW,341,3.0,4.0,53,0.00,,,0.00,Wunderground v.1.15,2013-02-20 18:10:00,
2013-02-20 13:20:00,27.2,12.7,30.35,SW,231,3.0,3.0,54,0.00,,,0.00,Wunderground v.1.15,2013-02-20 18:20:00,
2013-02-20 13:30:00,27.9,13.0,30.34,NNW,346,2.0,4.0,53,0.00,,,0.00,Wunderground v.1.15,2013-02-20 18:30:00,
2013-02-20 13:40:00,28.0,13.9,30.33,North,9,4.0,4.0,55,0.00,,,0.00,Wunderground v.1.15,2013-02-20 18:40:00,
2013-02-20 13:50:00,29.5,14.9,30.33,West,270,1.0,3.0,54,0.00,,,0.00,Wunderground v.1.15,2013-02-20 18:50:00,
2013-02-20 14:00:00,29.4,13.0,30.33,WSW,238,3.0,3.0,50,0.00,,,0.00,Wunderground v.1.15,2013-02-20 19:00:00,
2013-02-20 14:10:00,30.1,15.0,30.33,NW,319,2.0,3.0,53,0.00,,,0.00,Wunderground v.1.15,2013-02-20 19:10:00,
2013-02-20 14:20:00,29.9,14.4,30.33,West,271,3.0,3.0,52,0.00,,,0.00,Wunderground v.1.15,2013-02-20 19:20:00,
2013-02-20 14:30:00,30.0,14.0,30.33,NNW,329,3.0,3.0,51,0.00,,,0.00,Wunderground v.1.15,2013-02-20 19:30:00,
2013-02-20 14:40:00,30.5,14.5,30.33,WSW,243,2.0,3.0,51,0.00,,,0.00,Wunderground v.1.15,2013-02-20 19:40:00,
2013-02-20 14:50:00,30.2,14.7,30.33,NNE,22,4.0,4.0,52,0.00,,,0.00,Wunderground v.1.15,2013-02-20 19:50:00,
2013-02-20 15:00:00,30.3,13.9,30.33,NNW,335,3.0,3.0,50,0.00,,,0.00,Wunderground v.1.15,2013-02-20 20:00:00,
2013-02-20 15:10:00,30.2,14.7,30.32,North,355,2.0,2.0,52,0.00,,,0.00,Wunderground v.1.15,2013-02-20 20:10:00,
2013-02-20 15:20:00,30.1,15.4,30.32,North,355,4.0,4.0,54,0.00,,,0.00,Wunderground v.1.15,2013-02-20 20:20:00,
2013-02-20 15:30:00,30.2,14.7,30.32,NW,322,3.0,3.0,52,0.00,,,0.00,Wunderground v.1.15,2013-02-20 20:30:00,
2013-02-20 15:40:00,30.1,14.6,30.32,ENE,63,4.0,4.0,52,0.00,,,0.00,Wunderground v.1.15,2013-02-20 20:40:00,
2013-02-20 15:50:00,30.5,14.9,30.33,NW,326,3.0,4.0,52,0.00,,,0.00,Wunderground v.1.15,2013-02-20 20:50:00,
2013-02-20 16:00:00,30.3,15.6,30.32,NNW,336,3.0,3.0,54,0.00,,,0.00,Wunderground v.1.15,2013-02-20 21:00:00,
2013-02-20 16:10:00,30.2,15.1,30.32,North,360,3.0,3.0,53,0.00,,,0.00,Wunderground v.1.15,2013-02-20 21:10:00,
2013-02-20 16:20:00,29.8,14.7,30.31,North,9,3.0,3.0,53,0.00,,,0.00,Wunderground v.1.15,2013-02-20 21:20:00,
2013-02-20 16:30:00,29.9,15.7,30.31,North,355,2.0,2.0,55,0.00,,,0.00,Wunderground v.1.15,2013-02-20 21:30:00,
2013-02-20 16:40:00,29.9,14.8,30.31,North,10,2.0,2.0,53,0.00,,,0.00,Wunderground v.1.15,2013-02-20 21:40:00,
2013-02-20 16:50:00,29.9,15.3,30.31,SW,225,2.0,3.0,54,0.00,,,0.00,Wunderground v.1.15,2013-02-20 21:50:00,
2013-02-20 17:00:00,29.8,15.2,30.31,NW,309,2.0,3.0,54,0.00,,,0.00,Wunderground v.1.15,2013-02-20 22:00:00,
2013-02-20 17:10:00,29.5,15.3,30.31,NNE,19,3.0,4.0,55,0.00,,,0.00,Wunderground v.1.15,2013-02-20 22:10:00,
2013-02-20 17:20:00,29.4,14.4,30.31,NW,325,1.0,2.0,53,0.00,,,0.00,Wunderground v.1.15,2013-02-20 22:20:00,
2013-02-20 17:30:00,29.1,14.1,30.31,NNW,334,3.0,3.0,53,0.00,,,0.00,Wunderground v.1.15,2013-02-20 22:30:00,
2013-02-20 17:40:00,29.1,14.9,30.32,NW,311,1.0,3.0,55,0.00,,,0.00,Wunderground v.1.15,2013-02-20 22:40:00,
2013-02-20 17:50:00,29.1,15.3,30.33,NNW,331,2.0,2.0,56,0.00,,,0.00,Wunderground v.1.15,2013-02-20 22:50:00,
2013-02-20 18:00:00,29.0,15.7,30.33,WNW,298,1.0,1.0,57,0.00,,,0.00,Wunderground v.1.15,2013-02-20 23:00:00,
2013-02-20 18:10:00,28.7,15.0,30.33,NW,326,2.0,2.0,56,0.00,,,0.00,Wunderground v.1.15,2013-02-20 23:10:00,
2013-02-20 18:20:00,28.6,16.1,30.34,North,355,1.0,1.0,59,0.00,,,0.00,Wunderground v.1.15,2013-02-20 23:20:00,
2013-02-20 18:30:00,28.7,15.8,30.33,NNW,342,1.0,1.0,58,0.00,,,0.00,Wunderground v.1.15,2013-02-20 23:30:00,
2013-02-20 18:40:00,28.6,15.3,30.33,NW,316,1.0,2.0,57,0.00,,,0.00,Wunderground v.1.15,2013-02-20 23:40:00,
2013-02-20 18:50:00,28.3,15.4,30.33,NNW,346,2.0,2.0,58,0.00,,,0.00,Wunderground v.1.15,2013-02-20 23:50:00,
2013-02-20 19:00:00,28.3,16.6,30.32,NNE,23,1.0,1.0,61,0.00,,,0.00,Wunderground v.1.15,2013-02-21 00:00:00,
2013-02-20 19:10:00,28.1,16.0,30.32,North,360,1.0,2.0,60,0.00,,,0.00,Wunderground v.1.15,2013-02-21 00:10:00,
2013-02-20 19:20:00,28.0,15.9,30.32,NNE,19,2.0,2.0,60,0.00,,,0.00,Wunderground v.1.15,2013-02-21 00:20:00,
2013-02-20 19:30:00,27.9,15.4,30.32,NE,36,2.0,2.0,59,0.00,,,0.00,Wunderground v.1.15,2013-02-21 00:30:00,
2013-02-20 19:40:00,27.7,14.8,30.33,North,355,2.0,2.0,58,0.00,,,0.00,Wunderground v.1.15,2013-02-21 00:40:00,
2013-02-20 19:50:00,27.5,14.6,30.32,North,360,2.0,2.0,58,0.00,,,0.00,Wunderground v.1.15,2013-02-21 00:50:00,
2013-02-20 20:00:00,27.7,15.6,30.32,NE,44,1.0,1.0,60,0.00,,,0.00,Wunderground v.1.15,2013-02-21 01:00:00,
2013-02-20 20:10:00,27.7,16.0,30.32,NE,42,1.0,2.0,61,0.00,,,0.00,Wunderground v.1.15,2013-02-21 01:10:00,
2013-02-20 20:20:00,27.7,15.6,30.31,East,81,1.0,1.0,60,0.00,,,0.00,Wunderground v.1.15,2013-02-21 01:20:00,
2013-02-20 20:30:00,27.7,15.6,30.32,North,5,1.0,1.0,60,0.00,,,0.00,Wunderground v.1.15,2013-02-21 01:30:00,
2013-02-20 20:40:00,27.6,16.3,30.32,NNE,25,1.0,1.0,62,0.00,,,0.00,Wunderground v.1.15,2013-02-21 01:40:00,
2013-02-20 20:50:00,27.6,16.6,30.33,NNW,348,1.0,1.0,63,0.00,,,0.00,Wunderground v.1.15,2013-02-21 01:50:00,
2013-02-20 21:00:00,27.5,16.9,30.33,NNW,348,0.0,0.0,64,0.00,,,0.00,Wunderground v.1.15,2013-02-21 02:00:00,
2013-02-20 21:10:00,27.3,16.4,30.33,North,5,1.0,1.0,63,0.00,,,0.00,Wunderground v.1.15,2013-02-21 02:10:00,
2013-02-20 21:20:00,27.1,16.9,30.32,North,5,0.0,0.0,65,0.00,,,0.00,Wunderground v.1.15,2013-02-21 02:20:00,
2013-02-20 21:30:00,26.9,17.0,30.33,North,5,0.0,0.0,66,0.00,,,0.00,Wunderground v.1.15,2013-02-21 02:30:00,
2013-02-20 21:40:00,26.3,16.1,30.33,North,5,0.0,0.0,65,0.00,,,0.00,Wunderground v.1.15,2013-02-21 02:40:00,
2013-02-20 21:50:00,25.9,16.4,30.32,North,5,0.0,1.0,67,0.00,,,0.00,Wunderground v.1.15,2013-02-21 02:50:00,
2013-02-20 22:00:00,25.4,16.3,30.32,North,5,1.0,1.0,68,0.00,,,0.00,Wunderground v.1.15,2013-02-21 03:00:00,
2013-02-20 22:10:00,25.2,16.8,30.32,North,5,1.0,1.0,70,0.00,,,0.00,Wunderground v.1.15,2013-02-21 03:10:00,
2013-02-20 22:20:00,25.2,16.8,30.32,North,5,0.0,0.0,70,0.00,,,0.00,Wunderground v.1.15,2013-02-21 03:20:00,
2013-02-20 22:30:00,25.3,16.9,30.33,North,355,1.0,1.0,70,0.00,,,0.00,Wunderground v.1.15,2013-02-21 03:30:00,
2013-02-20 22:40:00,25.1,17.3,30.33,North,355,0.0,0.0,72,0.00,,,0.00,Wunderground v.1.15,2013-02-21 03:40:00,
2013-02-20 22:50:00,25.2,17.1,30.33,North,355,0.0,0.0,71,0.00,,,0.00,Wunderground v.1.15,2013-02-21 03:50:00,
2013-02-20 23:00:00,25.4,18.6,30.33,North,355,0.0,0.0,75,0.00,,,0.00,Wunderground v.1.15,2013-02-21 04:00:00,
2013-02-20 23:10:00,25.4,17.6,30.32,North,355,0.0,0.0,72,0.00,,,0.00,Wunderground v.1.15,2013-02-21 04:10:00,
2013-02-20 23:20:00,24.9,18.1,30.33,North,355,0.0,0.0,75,0.00,,,0.00,Wunderground v.1.15,2013-02-21 04:20:00,
2013-02-20 23:30:00,24.6,18.4,30.32,North,355,0.0,0.0,77,0.00,,,0.00,Wunderground v.1.15,2013-02-21 04:30:00,
2013-02-20 23:40:00,24.4,17.6,30.32,North,355,0.0,0.0,75,0.00,,,0.00,Wunderground v.1.15,2013-02-21 04:40:00,
2013-02-20 23:50:00,24.3,18.1,30.32,North,355,0.0,0.0,77,0.00,,,0.00,Wunderground v.1.15,2013-02-21 04:50:00,